ノヴィチョノク-ゲルケ彗星

P/2011 R3 ( Novichonok-Gerke ) 2022

English version
Home page
Updated on July 7, 2020

---------------------------------------------------------------------

・ プロフィール

・ 軌道要素

Epoch 2022 Sept. 18.0 TT = JDT 2459840.5                                        
T 2022 Oct. 5.03480 TT                                  Rudenko                 
q   3.4675189            (2000.0)            P               Q                  
n   0.09538047     Peri.  226.45413     +0.56742789     -0.82162616             
a   4.7442011      Node   189.44117     +0.81816927     +0.57002403             
e   0.2691037      Incl.   19.35689     +0.09286886     -0.00175031             
P  10.3                                                                         
From 381 observations 2011 Sept. 7-2020 June 20, mean residual 0".5.            

・ 光度変化

        m1 = 10.0 + 5 logΔ + 10.0 log r

---------------------------------------------------------------------

軌道要素はM.P.E.C. 2020-N08に掲載されたものです。
光度グラフはComet for Windowsで作成したものです。

---------------------------------------------------------------------

Copyright(C) Seiichi Yoshida (comet@aerith.net). All rights reserved.